Wind_Speed
19 19 19 20 21 21 20 18 18 18 19 20 20 20 20 21 21 20 18 18 18 17 17 17 16 16 16 16 15 15 15 15 15 14 14 14 13 12 12 11 11 10 10 9 8 7 7 7 6
20 20 20 21 21 21 20 18 18 18 19 20 21 22 22 22 21 21 20 19 19 19 19 18 18 18 18 17 17 17 17 17 17 17 16 16 15 15 14 13 13 12 11 11 10 9 8 8 8
22 22 22 22 22 22 20 19 19 20 21 22 22 22 23 23 22 22 22 21 21 21 21 21 20 20 19 19 19 19 19 19 19 19 18 18 17 17 16 16 15 14 13 12 12 11 10 10 9
23 23 24 24 23 22 21 20 20 21 22 23 23 23 24 24 24 23 23 23 23 23 22 22 22 22 21 21 20 20 21 21 21 20 20 20 19 19 18 17 16 15 14 14 13 13 12 12 11
24 24 25 25 24 23 22 22 22 22 24 24 24 24 24 24 24 24 24 24 24 24 24 24 23 23 23 23 22 21 22 22 22 22 22 21 21 21 20 19 18 17 16 15 15 14 14 13 13
25 26 26 26 26 25 24 23 23 24 25 25 26 26 26 26 26 26 26 26 26 26 26 26 26 25 25 25 25 24 24 24 23 23 23 23 23 22 22 21 20 19 18 18 17 16 15 15 14
27 27 28 27 27 27 26 26 25 25 27 27 27 28 27 28 28 28 28 28 29 29 28 28 28 28 27 27 27 27 26 26 26 25 25 25 24 24 23 23 22 21 20 20 19 18 17 17 16
27 28 29 29 29 28 28 27 27 27 28 29 29 29 29 29 30 30 30 30 30 30 30 30 29 29 29 29 29 29 28 28 28 28 27 26 26 26 25 25 24 23 22 22 21 20 19 18 17
28 30 30 30 30 29 29 29 28 29 29 30 31 31 31 31 31 32 32 32 32 32 32 32 31 31 32 32 31 31 31 31 30 30 29 29 28 27 27 26 26 25 24 23 23 22 21 20 20
29 30 30 31 31 31 31 30 30 31 31 32 32 32 33 33 34 34 34 34 34 34 34 34 34 34 34 34 34 33 33 33 32 32 31 31 31 30 29 29 28 28 27 26 25 24 23 23 22
30 30 31 32 32 33 32 32 32 33 33 34 33 34 35 35 35 36 37 36 36 35 36 36 36 36 36 36 36 36 36 35 35 34 34 33 33 32 31 30 30 30 29 29 28 27 26 25 24
30 31 32 33 34 34 34 33 33 34 35 35 35 35 36 36 37 37 38 38 38 38 38 38 39 38 38 38 38 38 38 38 37 37 36 36 35 34 34 33 32 32 32 31 31 30 29 28 27
31 32 33 34 35 35 36 35 35 35 36 37 36 36 37 38 38 39 39 40 40 40 40 40 40 41 40 40 40 40 40 40 40 39 39 38 37 37 36 35 35 34 34 34 34 33 32 31 29
31 32 33 34 35 36 37 36 36 36 37 38 38 38 38 39 40 40 41 41 41 41 42 42 42 43 43 43 42 42 42 41 41 41 41 40 40 39 39 38 37 36 36 35 35 35 34 33 32
31 32 33 35 36 36 37 37 36 36 37 38 39 39 39 40 41 42 42 43 43 42 43 43 43 44 44 45 44 44 43 43 42 42 42 42 41 41 40 39 39 38 38 37 37 37 36 35 34
30 31 32 33 35 35 37 37 36 37 37 38 39 39 39 40 41 42 42 44 45 44 44 44 44 44 45 45 45 45 45 45 44 45 45 44 43 42 42 41 41 40 40 39 39 39 37 37 36
29 30 31 32 34 34 36 37 36 37 38 38 39 40 40 41 41 42 43 43 45 46 45 45 45 46 46 46 46 46 47 47 47 46 47 46 46 46 45 44 43 43 43 42 41 40 39 39 38
29 30 30 31 32 33 35 36 36 37 38 39 39 40 41 42 42 43 43 44 45 46 46 46 46 47 48 48 48 48 48 49 49 49 48 48 48 47 47 47 46 45 45 45 44 44 42 41 40
29 29 29 30 30 32 33 34 34 36 37 39 39 40 41 42 43 43 44 45 46 46 47 47 48 49 49 49 49 50 49 50 50 50 50 50 49 49 49 49 48 47 47 46 46 45 45 44 42
27 28 28 28 29 31 33 33 32 34 36 37 38 40 40 42 43 43 44 45 46 47 48 48 49 49 50 51 51 50 51 50 51 51 50 51 51 51 51 52 51 50 49 48 48 48 47 46 45
25 26 27 28 28 29 30 31 31 33 35 35 37 38 39 41 42 43 44 45 45 46 47 49 49 49 50 51 51 51 51 51 52 52 52 52 52 52 51 52 52 51 50 49 49 49 49 48 47
23 23 25 26 27 27 28 30 30 31 33 35 35 36 37 39 41 42 43 44 45 46 46 48 48 48 49 50 50 51 51 51 51 52 52 52 52 52 52 51 52 51 51 51 51 51 51 50 50
21 22 23 24 25 26 27 28 28 30 31 33 34 35 36 38 40 41 42 43 44 45 46 47 47 47 48 49 49 50 50 51 51 52 52 53 53 53 53 53 53 53 52 52 52 52 52 52 52
21 21 22 23 25 26 26 28 28 28 29 31 33 34 35 36 38 40 41 42 43 44 45 45 47 47 47 48 49 49 49 49 50 50 52 53 53 52 53 54 54 54 54 54 53 53 53 53 53
19 20 21 22 24 25 25 27 29 29 29 30 32 33 35 36 36 38 40 40 42 43 44 45 46 47 47 47 48 48 49 49 50 50 50 51 52 52 53 54 54 54 54 55 54 54 53 53 53
19 20 21 22 23 24 25 26 27 27 28 30 31 32 33 33 33 35 37 39 40 42 43 44 44 45 46 47 47 48 49 49 49 50 51 51 52 53 53 53 54 55 55 54 55 55 55 54 53
20 21 21 23 25 25 26 27 28 27 28 29 30 30 32 32 33 34 35 37 39 40 41 43 45 45 46 47 47 49 49 49 50 50 50 51 53 54 54 54 55 56 55 55 55 55 54 55 54
22 22 21 23 25 26 26 26 28 29 29 30 30 30 31 32 33 34 35 36 38 39 40 42 44 45 45 46 47 48 49 48 49 51 51 52 52 53 54 53 53 54 55 55 55 55 55 55 54
23 23 23 24 25 26 27 26 27 29 30 31 31 32 32 32 33 34 35 36 37 38 40 41 43 44 45 45 46 48 49 50 50 51 51 52 53 53 53 54 54 54 54 54 54 53 54 55 56
23 24 24 25 26 26 27 27 28 29 30 31 32 33 33 33 33 34 35 36 36 37 38 40 41 43 44 44 46 47 48 49 50 51 52 53 53 52 53 54 54 54 54 55 55 54 54 56 56
Wind_Direction
255 253 253 252 251 250 251 250 248 245 242 241 241 240 240 241 241 242 239 237 236 235 234 233 232 230 230 230 229 230 231 231 231 230 229 227 227 226 225 226 224 223 223 225 225 223 222 219 215
253 253 252 251 252 252 252 251 249 246 244 242 241 241 240 240 241 241 240 238 238 237 235 235 235 234 234 233 231 231 232 233 233 233 232 231 230 231 230 230 230 229 229 229 229 228 228 226 224
254 253 252 252 252 253 254 252 249 244 243 244 242 241 241 241 241 241 240 240 239 239 238 237 236 236 235 235 234 233 232 233 233 233 233 233 233 233 233 233 234 234 234 234 234 232 231 230 228
255 253 252 252 252 253 254 252 249 245 243 244 244 242 242 242 241 241 241 241 240 240 240 239 238 238 238 237 236 234 234 235 234 234 235 235 234 234 235 236 237 237 237 237 237 237 236 234 232
254 253 253 253 253 253 253 253 251 248 246 245 245 243 242 242 241 241 241 242 241 240 240 240 240 241 241 240 239 238 236 236 236 235 235 236 236 236 236 238 240 240 240 240 240 239 239 238 235
254 253 253 253 254 254 254 254 253 250 248 246 245 244 243 243 242 242 242 243 242 241 241 241 241 241 242 242 241 240 238 237 236 236 236 236 237 238 238 239 240 241 242 242 241 240 240 240 240
255 254 253 253 253 254 254 254 254 252 249 248 247 246 245 244 244 243 244 244 244 243 243 243 243 243 243 243 242 242 241 240 238 238 238 239 239 240 239 240 241 242 243 244 243 242 241 242 242
256 255 254 253 253 253 253 254 255 253 251 250 249 248 247 247 246 245 245 245 245 244 244 244 244 244 244 245 244 242 243 242 242 240 240 240 241 241 241 241 242 243 243 244 245 243 243 243 244
255 255 254 253 253 253 253 254 254 253 252 251 251 250 249 248 247 247 246 246 245 245 244 244 244 244 244 244 245 244 243 243 243 243 241 242 242 243 243 243 243 243 244 245 245 244 244 244 245
255 255 255 254 253 253 253 254 254 252 251 252 252 250 249 249 249 248 247 247 247 246 245 245 245 245 245 245 244 245 245 245 244 244 243 243 243 244 244 244 244 244 245 245 246 246 245 245 245
256 255 255 254 254 254 254 255 255 254 253 252 252 253 252 250 251 250 249 248 248 247 247 246 246 246 246 246 245 245 246 246 246 245 244 244 244 245 245 245 245 245 246 245 245 246 246 246 246
258 256 255 255 255 255 255 256 256 256 256 255 255 254 254 253 252 252 251 250 249 248 248 247 246 246 246 246 246 246 246 247 246 246 246 245 245 245 245 246 246 246 246 246 246 247 246 246 247
259 257 255 255 255 257 257 257 258 258 258 257 257 255 255 253 252 251 250 250 250 249 248 248 247 247 247 246 246 246 246 246 247 246 246 246 246 245 245 245 246 246 246 247 246 247 248 246 247
261 258 256 255 255 257 258 258 258 258 258 258 257 256 255 254 253 252 250 250 250 250 249 249 248 247 247 246 246 246 246 247 247 247 245 246 246 246 245 245 246 246 247 247 247 247 248 246 246
264 261 259 257 257 258 259 259 259 259 258 258 257 256 256 255 254 253 252 250 250 250 249 248 248 247 247 246 246 246 246 246 246 246 246 246 246 247 247 246 246 247 247 247 248 247 247 246 246
267 263 260 259 258 259 260 260 258 258 258 258 257 256 256 256 255 254 254 252 250 250 249 248 247 247 246 246 246 246 246 245 245 245 246 246 247 247 247 247 247 247 247 247 248 248 247 247 246
269 263 262 262 260 260 261 259 257 257 257 258 257 257 256 256 256 255 255 253 251 250 249 248 247 247 248 247 247 247 246 246 245 246 247 246 247 247 247 248 248 248 248 247 247 247 247 247 248
271 266 265 263 262 262 262 261 258 258 258 258 258 257 257 257 257 256 254 254 252 251 250 249 249 248 247 247 247 247 247 247 247 247 247 247 247 247 247 248 249 248 248 248 247 246 246 247 248
276 271 268 264 262 265 263 263 262 261 260 260 259 258 258 258 257 256 254 254 253 252 251 251 249 248 247 247 247 247 247 247 247 247 247 247 247 247 248 248 248 248 248 248 247 247 246 247 247
281 274 269 265 267 268 266 263 261 261 262 262 262 260 259 258 257 256 254 254 253 253 252 251 250 249 248 248 248 248 247 247 247 247 246 246 246 247 247 247 247 247 247 247 247 247 246 247 247
283 276 271 268 269 268 269 266 264 263 263 263 263 263 261 259 257 257 256 254 254 254 253 252 252 251 249 248 248 247 247 247 247 246 246 246 246 245 246 246 246 246 246 246 247 247 246 246 246
285 276 274 274 271 271 271 271 268 266 264 264 264 264 262 260 259 258 257 255 254 254 254 253 253 252 250 249 248 248 247 247 246 245 245 246 245 245 245 246 246 246 246 246 246 246 246 246 246
290 281 278 277 273 273 272 273 271 269 267 267 266 266 264 263 262 260 258 256 256 255 254 254 253 251 250 249 247 247 247 246 246 245 245 244 245 245 245 245 246 247 246 247 247 246 247 246 246
296 289 284 280 277 276 273 273 274 273 270 269 267 266 266 265 264 263 261 260 258 256 255 255 254 252 251 249 248 247 246 246 245 244 244 244 245 245 245 245 246 246 246 247 247 246 246 246 246
297 294 288 284 281 282 277 275 276 277 275 272 270 268 266 267 267 265 264 262 260 259 257 256 255 253 252 249 247 247 246 246 245 245 245 245 245 245 246 247 246 246 247 247 247 246 246 246 246
299 298 290 284 284 286 281 278 278 280 277 274 273 271 269 269 269 268 266 264 262 260 259 257 256 254 252 249 248 248 248 247 247 247 246 245 245 246 247 247 247 247 247 247 247 247 247 247 246
303 300 295 288 289 288 286 282 279 280 278 276 275 272 271 271 271 271 269 266 264 261 259 258 257 256 254 252 252 250 249 249 249 249 249 248 247 247 247 247 247 247 247 247 248 248 248 248 246
306 303 299 296 293 290 289 285 283 282 280 276 275 274 273 274 274 272 271 268 265 263 261 259 258 257 257 255 253 252 251 251 251 251 251 250 249 248 246 246 247 248 248 247 248 248 249 248 248
307 303 300 298 295 290 290 291 290 285 282 279 276 276 277 276 275 274 273 271 269 265 262 261 260 259 257 255 254 254 253 252 253 252 251 249 248 248 248 248 249 249 249 248 249 250 250 249 249
308 306 302 298 296 293 290 292 289 286 285 282 278 277 277 276 276 275 274 272 270 268 264 262 260 259 258 258 256 254 253 253 252 252 250 248 248 248 249 249 249 248 249 249 249 250 250 250 250
Height
5822 5823 5824 5824 5825 5825 5827 5829 5830 5831 5832 5832 5833 5834 5835 5837 5839 5842 5842 5842 5843 5844 5845 5846 5847 5848 5849 5850 5852 5853 5854 5855 5856 5858 5859 5859 5860 5861 5862 5862 5863 5864 5864 5865 5865 5866 5866 5866 5867
5818 5818 5820 5820 5820 5820 5823 5825 5826 5827 5828 5828 5829 5830 5831 5832 5834 5836 5837 5838 5840 5841 5842 5843 5844 5845 5847 5848 5849 5850 5852 5853 5854 5855 5856 5857 5858 5859 5860 5861 5862 5862 5863 5864 5864 5865 5865 5866 5866
5813 5813 5815 5815 5815 5817 5820 5821 5822 5823 5823 5824 5825 5826 5827 5829 5830 5832 5833 5834 5836 5837 5838 5839 5841 5842 5843 5845 5846 5847 5849 5850 5852 5853 5854 5855 5856 5857 5858 5859 5860 5861 5861 5862 5863 5863 5864 5864 5865
5807 5808 5809 5810 5810 5813 5815 5816 5817 5818 5818 5819 5820 5822 5823 5824 5826 5828 5829 5830 5832 5833 5834 5836 5837 5838 5840 5841 5843 5844 5846 5847 5848 5850 5851 5852 5854 5855 5856 5857 5858 5858 5859 5860 5861 5862 5862 5863 5864
5801 5801 5802 5803 5805 5808 5809 5811 5811 5812 5813 5814 5815 5816 5818 5819 5821 5823 5824 5826 5827 5829 5830 5832 5833 5835 5836 5838 5839 5841 5842 5843 5845 5846 5848 5849 5850 5852 5853 5854 5855 5856 5857 5858 5859 5860 5861 5861 5862
5794 5794 5796 5797 5800 5802 5803 5804 5805 5806 5807 5808 5809 5811 5812 5814 5816 5817 5819 5820 5822 5824 5825 5827 5828 5830 5832 5834 5835 5837 5838 5839 5841 5843 5844 5845 5847 5848 5850 5851 5852 5853 5854 5856 5857 5857 5858 5859 5860
5787 5788 5789 5791 5793 5795 5797 5798 5799 5799 5800 5801 5803 5805 5807 5808 5810 5811 5813 5815 5816 5818 5820 5822 5823 5825 5827 5829 5830 5832 5833 5835 5837 5838 5840 5842 5843 5844 5846 5848 5849 5850 5851 5852 5854 5855 5856 5856 5857
5778 5780 5781 5784 5786 5788 5790 5791 5792 5792 5793 5794 5796 5798 5800 5802 5803 5805 5807 5808 5810 5812 5814 5816 5818 5819 5821 5823 5825 5827 5828 5830 5832 5833 5835 5837 5839 5840 5842 5843 5845 5846 5847 5849 5850 5851 5852 5853 5854
5770 5772 5773 5776 5778 5781 5782 5783 5785 5785 5786 5787 5789 5791 5793 5795 5796 5798 5800 5801 5803 5805 5807 5809 5811 5813 5815 5817 5819 5821 5823 5824 5826 5828 5830 5832 5834 5835 5837 5839 5840 5842 5843 5844 5846 5847 5849 5850 5851
5761 5763 5766 5768 5770 5772 5774 5775 5777 5777 5778 5779 5781 5783 5785 5787 5788 5790 5792 5794 5796 5798 5800 5802 5804 5806 5808 5810 5812 5814 5816 5818 5820 5822 5824 5826 5828 5830 5832 5833 5835 5837 5838 5840 5841 5843 5844 5846 5847
5751 5754 5757 5758 5760 5763 5765 5767 5768 5769 5770 5771 5773 5774 5776 5778 5780 5781 5783 5785 5788 5790 5792 5794 5796 5798 5800 5802 5804 5807 5809 5811 5813 5815 5817 5819 5821 5824 5826 5827 5829 5831 5833 5835 5836 5838 5840 5841 5842
5743 5745 5747 5749 5751 5753 5755 5757 5759 5760 5762 5763 5764 5765 5767 5769 5771 5772 5774 5776 5778 5780 5783 5785 5787 5789 5792 5794 5796 5798 5801 5803 5805 5808 5810 5812 5814 5817 5819 5821 5823 5825 5827 5829 5831 5832 5834 5836 5837
5734 5736 5738 5740 5741 5743 5745 5747 5748 5750 5751 5752 5754 5755 5757 5759 5761 5762 5764 5766 5768 5770 5773 5775 5778 5780 5782 5785 5787 5789 5792 5794 5796 5799 5802 5804 5806 5809 5811 5814 5816 5818 5820 5822 5824 5826 5828 5830 5831
5725 5727 5728 5730 5731 5733 5734 5736 5738 5740 5740 5742 5743 5745 5746 5748 5750 5752 5753 5756 5758 5760 5762 5765 5767 5770 5772 5775 5777 5780 5782 5785 5787 5790 5792 5795 5798 5800 5803 5805 5808 5810 5812 5815 5817 5819 5821 5823 5825
5715 5717 5719 5719 5721 5722 5724 5726 5728 5729 5729 5730 5732 5733 5735 5737 5739 5740 5743 5745 5747 5749 5751 5754 5756 5758 5761 5764 5767 5770 5772 5775 5777 5780 5783 5785 5788 5791 5794 5796 5799 5802 5804 5806 5809 5811 5813 5815 5818
5706 5707 5709 5710 5710 5711 5714 5716 5717 5717 5718 5719 5721 5723 5724 5726 5727 5729 5731 5733 5735 5737 5740 5742 5745 5747 5750 5752 5756 5759 5762 5764 5767 5770 5772 5775 5778 5781 5784 5787 5790 5792 5795 5797 5800 5802 5805 5808 5810
5696 5697 5698 5700 5700 5701 5702 5704 5705 5706 5707 5709 5710 5711 5713 5714 5716 5718 5719 5721 5723 5725 5727 5730 5732 5735 5738 5741 5744 5747 5750 5753 5756 5759 5762 5764 5767 5770 5773 5777 5780 5783 5785 5788 5790 5793 5796 5799 5801
5687 5688 5689 5689 5690 5691 5691 5693 5694 5695 5696 5697 5698 5700 5701 5702 5704 5706 5707 5709 5710 5713 5715 5718 5720 5723 5725 5728 5732 5735 5738 5740 5744 5747 5750 5753 5755 5759 5762 5765 5769 5771 5775 5778 5780 5783 5786 5789 5792
5678 5678 5679 5680 5680 5681 5681 5683 5684 5684 5685 5686 5687 5688 5689 5690 5692 5693 5694 5696 5698 5700 5702 5705 5707 5710 5712 5716 5719 5722 5725 5728 5731 5734 5737 5740 5743 5746 5749 5753 5756 5760 5763 5766 5770 5773 5776 5779 5782
5669 5669 5669 5671 5671 5671 5672 5673 5673 5673 5674 5675 5676 5676 5677 5678 5679 5681 5682 5683 5685 5687 5689 5692 5694 5696 5699 5702 5705 5708 5712 5715 5718 5721 5723 5726 5729 5733 5736 5740 5744 5747 5751 5754 5757 5761 5765 5768 5771
5661 5661 5661 5662 5662 5661 5662 5662 5663 5663 5664 5664 5664 5665 5666 5666 5667 5668 5669 5671 5672 5674 5676 5678 5680 5682 5685 5688 5691 5694 5697 5700 5704 5707 5710 5713 5716 5719 5723 5726 5730 5734 5737 5741 5745 5748 5752 5756 5760
5654 5654 5653 5653 5653 5652 5653 5652 5654 5653 5653 5654 5654 5654 5654 5655 5655 5656 5657 5658 5659 5661 5663 5665 5667 5669 5671 5674 5677 5680 5683 5686 5689 5693 5696 5699 5702 5706 5709 5713 5717 5720 5724 5728 5732 5735 5739 5743 5747
5648 5647 5646 5646 5645 5645 5644 5644 5645 5644 5644 5644 5644 5644 5644 5644 5644 5644 5645 5645 5647 5649 5650 5652 5654 5656 5658 5660 5662 5665 5669 5672 5676 5679 5683 5686 5689 5692 5695 5699 5703 5707 5710 5714 5718 5721 5726 5730 5734
5641 5641 5640 5638 5637 5637 5636 5635 5635 5635 5635 5634 5634 5634 5633 5633 5633 5633 5633 5634 5634 5635 5637 5639 5640 5643 5644 5646 5649 5651 5655 5658 5662 5665 5668 5672 5675 5678 5682 5685 5689 5692 5696 5700 5704 5708 5712 5716 5720
5636 5635 5633 5631 5630 5629 5628 5627 5627 5626 5625 5625 5624 5624 5623 5622 5622 5622 5622 5622 5623 5623 5624 5626 5628 5629 5631 5633 5636 5639 5642 5645 5648 5651 5655 5658 5661 5664 5668 5672 5676 5679 5682 5686 5690 5694 5698 5702 5707
5630 5629 5627 5625 5622 5622 5621 5619 5620 5618 5617 5615 5615 5614 5613 5612 5612 5611 5611 5611 5611 5611 5612 5614 5615 5616 5618 5620 5623 5626 5629 5632 5635 5638 5642 5645 5648 5651 5655 5658 5662 5665 5668 5672 5676 5680 5684 5688 5693
5625 5623 5621 5619 5616 5615 5614 5613 5612 5611 5608 5607 5606 5605 5604 5603 5602 5601 5600 5600 5600 5600 5601 5601 5602 5604 5605 5607 5610 5613 5616 5619 5622 5625 5628 5631 5634 5637 5641 5644 5648 5651 5655 5659 5662 5666 5670 5674 5678
5621 5617 5615 5612 5609 5606 5606 5605 5604 5602 5600 5599 5597 5596 5595 5594 5593 5591 5590 5589 5589 5589 5589 5589 5591 5592 5593 5595 5597 5600 5602 5605 5608 5611 5614 5617 5620 5624 5627 5630 5634 5637 5641 5645 5649 5653 5656 5660 5664
5615 5612 5608 5605 5603 5600 5597 5600 5596 5594 5592 5590 5589 5587 5586 5585 5583 5582 5580 5579 5578 5578 5577 5578 5579 5580 5581 5583 5585 5587 5589 5592 5595 5598 5601 5604 5607 5610 5613 5617 5620 5624 5627 5632 5636 5639 5643 5646 5650
5609 5606 5603 5601 5597 5593 5590 5593 5588 5586 5583 5581 5580 5578 5577 5575 5574 5572 5570 5569 5568 5567 5566 5566 5567 5568 5569 5570 5572 5574 5577 5579 5582 5584 5587 5590 5593 5596 5599 5603 5607 5610 5614 5618 5622 5626 5629 5633 5637